Location: Unspecified
(0.0000°N, 0.0000°E)
Time: 14:43:10
(UTC+00:00)

Envisat - Pass Details

Date: 12 April 2021
Orbit: 764 x 766 km, 98.1° (Epoch: 16 April)

Event Time Altitude Azimuth Distance (km) Brightness Sun altitude
Rises 05:23:23 0° 5° (N) 3,213 6.4 -9.3°
Reaches altitude 10° 05:25:42 10° 1° (N) 2,290 5.6 -8.7°
Maximum altitude 05:30:39 59° 282° (WNW) 878 3.1 -7.5°
Drops below altitude 10° 05:35:39 10° 203° (SSW) 2,301 5.2 -6.2°
Sets 05:37:59 0° 199° (SSW) 3,229 6.0 -5.6°
